Weather History for Palacios, TX

Change the Weather History Date:

Friday, May 16, 2014

  Actual Average Record
Temperature  
Mean Temperature 74 °F -  
Max Temperature 79 °F 82 °F 88 °F (1950)
Min Temperature 69 °F 68 °F 52 °F (1945)
Cooling Degree Days 8    
Growing Degree Days 24 (Base 50)    
Moisture  
Dew Point 57 °F    
Average Humidity 58    
Maximum Humidity 70    
Minimum Humidity 39    
Precipitation  
Precipitation 0.00 in - - ()
Sea Level Pressure  
Sea Level Pressure 30.14 in    
Wind  
Wind Speed 14 mph (SSW)    
Max Wind Speed 17 mph    
Max Gust Speed 25 mph    
Visibility 10 miles    
Events      
Averages and records for this station are not official NWS values.
T = Trace of Precipitation, MM = Missing Value Source: NWS Daily Summary

Daily Weather History Graph

Daily Weather History Graph

Search for Another Location

Airport:

Trip Planner

Search our weather history database for the weather conditions in past years. The results will help you decide how hot, cold, wet, or windy it might be!

Date:

Astronomy

May. 16, 2014 Rise Set
Actual Time 6:33 AM CDT 8:09 PM CDT
Civil Twilight 6:07 AM CDT 8:35 PM CDT
Nautical Twilight 5:36 AM CDT 9:06 PM CDT
Astronomical Twilight 5:04 AM CDT 9:39 PM CDT
Moon 10:17 PM CDT (5/16) 8:16 AM CDT (5/16)
Length of Visible Light 14h 27m
Length of Day
13h 36m
Waning Gibbous, 95% of the Moon is Illuminated
May 16
Waning Gibbous
May 21
Last Quarter
May 28
New
Jun 5
First Quarter
Jun 12
Full

Hourly Weather History & Observations

Time (CDT) Temp. Dew Point Humidity Pressure Visibility Wind Dir Wind Speed Gust Speed Precip Events Conditions
12:53 AM 70.0 °F 55.9 °F 61% 30.20 in 10.0 mi South 12.7 mph - N/A   Clear
1:53 AM 70.0 °F 57.0 °F 63% 30.18 in 10.0 mi South 16.1 mph - N/A   Clear
2:53 AM 69.8 °F 57.2 °F 64% 30.16 in 10.0 mi South 17.3 mph 25.3 mph N/A   Clear
3:53 AM 70.0 °F 57.0 °F 63% 30.16 in 10.0 mi SSW 15.0 mph 23.0 mph N/A   Clear
4:53 AM 69.1 °F 57.9 °F 68% 30.15 in 10.0 mi SSW 16.1 mph 24.2 mph N/A   Clear
5:53 AM 69.1 °F 57.0 °F 65% 30.15 in 10.0 mi SSW 12.7 mph - N/A   Clear
6:53 AM 69.1 °F 57.0 °F 65% 30.15 in 10.0 mi SSW 13.8 mph 19.6 mph N/A   Clear
7:53 AM 70.0 °F 57.9 °F 65% 30.18 in 10.0 mi SW 11.5 mph - N/A   Clear
8:53 AM 72.0 °F 55.9 °F 57% 30.19 in 10.0 mi SW 15.0 mph - N/A   Clear
9:53 AM 73.9 °F 57.0 °F 55% 30.20 in 10.0 mi SSW 13.8 mph - N/A   Clear
10:53 AM 75.0 °F 57.0 °F 53% 30.20 in 10.0 mi SSW 13.8 mph 19.6 mph N/A   Clear
11:53 AM 78.1 °F 53.1 °F 42% 30.19 in 10.0 mi SW 16.1 mph - N/A   Clear
12:53 PM 77.0 °F 55.9 °F 48% 30.18 in 10.0 mi South 12.7 mph - N/A   Clear
1:53 PM 77.0 °F 57.0 °F 50% 30.16 in 10.0 mi South 13.8 mph - N/A   Clear
2:53 PM 78.8 °F 51.8 °F 39% 30.13 in 10.0 mi South 17.3 mph - N/A   Clear
3:53 PM 78.1 °F 55.0 °F 45% 30.11 in 10.0 mi South 15.0 mph - N/A   Clear
4:53 PM 78.1 °F 51.1 °F 39% 30.09 in 10.0 mi South 13.8 mph - N/A   Clear
5:53 PM 75.0 °F 55.9 °F 51% 30.08 in 10.0 mi South 12.7 mph - N/A   Clear
6:53 PM 73.9 °F 57.9 °F 57% 30.08 in 10.0 mi South 11.5 mph - N/A   Clear
7:53 PM 71.1 °F 59.0 °F 66% 30.07 in 10.0 mi SSE 12.7 mph - N/A   Clear
8:53 PM 70.0 °F 59.0 °F 68% 30.07 in 10.0 mi SSE 12.7 mph - N/A   Clear
9:53 PM 69.8 °F 59.0 °F 68% 30.09 in 10.0 mi SSE 12.7 mph - N/A   Clear
10:53 PM 69.1 °F 59.0 °F 70% 30.10 in 10.0 mi South 12.7 mph - N/A   Clear
11:53 PM 70.0 °F 59.0 °F 68% 30.10 in 10.0 mi South 16.1 mph - N/A   Clear